星链-36451(STARLINK-36451)

导读

STARLINK-36451是美国SpaceX公司星链(Starlink)卫星互联网星座的一员,于2026年1月9日发射。星链项目旨在打造低轨卫星通信网络,为全球尤其是偏远地区提供高速宽带互联网服务。 作为量产型低轨通信卫星,它采用平板设计搭载太阳能电池阵,配备霍尔推进器,具备自主避撞能力,寿命末期会主动离轨再入大气层烧毁,减少太空垃圾影响,服务全球互联网接入。

基本信息
目录编号:
67339
目录名称:
STARLINK-36451
国际标识:
2026-003F
轨道中心:
EARTH
卫星名称:
星链-36451
卫星全名:
星链-36451(STARLINK-36451)
卫星状态:
在轨 (已飞行247 天)
发射日期:
2026-01-09 UTC
国别 :
美国 (US)
星等 :
--
该卫星已列入 空间交会检测服务 Space Conjunction Data Service (SCDS) ,当前飞行风险评估等级: 无高风险
轨道信息
数据来源 国际轨道数据
星历时间: 2026-09-13T07:05:32+0800
8小时前
查看轨道信息
半长轴: 6861.177km
偏心率: 0.000114
轨道倾角: 43.000°
近地点辐角 268.412°
升交点赤经 249.552°
平近点角 91.661°
近地点: 482.257km
远地点: 483.823km
周期: 94.267分钟
每日圈数: 15.275831
详细信息
固有亮度:
5
最大亮度:
2.5
卫星平台:
Starlink V1.0
覆盖范围:
全球
运营商:
太空探索技术公司
运营商所在国:
美国
制造商(研发单位):
太空探索技术公司
制造商所在国:
美国
使用方式:
暂无
卫星简介
Starlink 计划是 SpaceX 推出的全球卫星互联网项目,通过发射低轨道卫星,为全球尤其是偏远地区提供高速、低延迟的互联网服务。自 2019 年起,Starlink 已部署数千颗卫星,旨在缩小全球数字鸿沟,推动互联网普及。该项目还为军事、航空等行业提供通信支持,带来广泛经济效益。
2D轨道图
3D轨道图
轨道高度分析图
轨道倾角分析图
轨道综合分析图
查看轨道综合分析图
交会数据列表
事件ID 空间交会对象 最接近时刻(TCA) 交会距离 交会风险概率(CRP) 交会风险指数(CRI) 操作
CDM_260915-074805-965206-733921
2026-09-15T
07:48:05+0000
1.296 km
极远距离
7.082869E-6 低风险 0.52
CDM_260914-082406-728706-733921
2026-09-14T
08:24:52+0000
2.975 km
极远距离
1.157376E-6 低风险 0.36
与全量物体交会距离演化趋势
与全量物体交会风险概率演化趋势